User: anonymous   Login
Location: Houston
(29.7631°N, 95.3631°W)
Time: 21:43:54
(UTC-05:00)
Language:

ZACube-1 - Orbit

View from above orbital plane
View from above orbital plane
View from above satellite
View from above satellite

Ground track
Ground track

The orbit data is extracted from the following two-line orbital elements,

1 39417U 13066B   19295.02360852  .00000199  00000-0  31443-4 0  9990
2 39417  97.5626 301.4816 0058535 344.4833  15.4584 14.81164122319593
Epoch (UTC): 22 October 2019 00:33:59
Eccentricity: 0.0058535
inclination: 97.5626°
perigee height: 584 km
apogee height: 666 km
right ascension of ascending node: 301.4816°
argument of perigee: 344.4833°
revolutions per day: 14.81164122
mean anomaly at epoch: 15.4584°
orbit number at epoch: 31959

The dashed part of the orbit path shows where the satellite is in the earth's shadow,  

DLR